GLOBALSTAR M097 [+] (39072 NORAD) Tracking and Keplerian Element Data

This shows tracking and keplerian element data for the satellite.

Feedback or suggestion? Click here.




ElementValue
Catalog39072
NameGLOBALSTAR M097 [+]
Epoch Orbit27082
Epoch Day349.12793055
Epoch Year2018
RAAN307.4213
Inclination52.0057
Eccentricity9.46E-05
Argument of Perigee59.1165
Mean Anonmoly300.9794
Mean Motion12.62266904
Decay Rate-9.3E-07
L11 39072U 13005A 18349.12793055 -.00000093 00000-0 57765-4 0 9994
L22 39072 52.0057 307.4213 0000946 59.1165 300.9794 12.62266904270827

Live tracking and technical data element details for GLOBALSTAR M097 [+] (NORAD 39072). GLOBALSTAR M097 [+] can be tracked NOW for your location showing map with azimuth and elevation plus other details from your city location.

Track the satellite on the map from your city or location and see movement details for azimuth, elevation, latitude, longitude, range, height, and movement on the map or in text.







IsCatalogInMostPopularTable: catalog: 39072, numindb: 79
Update: records affected: 1



GetName: 39072 GLOBALSTAR M097 [+]

Hit Count: updated at: Sat, 15 Dec 2018 13:23:28 GMT